Brisbane, Queensland

2:30 AM AEST on October 01, 2016 (GMT +1000)
Brisbane

Weather History for 94578 - March, 2014

Change the Weather History Date:

Tuesday, March 4, 2014

  Actual Average Record
Temperature  
Mean Temperature 74 °F -  
Max Temperature 81 °F - - ()
Min Temperature 67 °F - - ()
Cooling Degree Days 9    
Growing Degree Days 24 (Base 50)    
Moisture  
Dew Point 63 °F    
Average Humidity 71    
Maximum Humidity 94    
Minimum Humidity 31    
Precipitation  
Precipitation 0.08 in - - ()
Sea Level Pressure  
Sea Level Pressure 30.16 in    
Wind  
Wind Speed 8 mph ()    
Max Wind Speed 16 mph    
Max Gust Speed 22 mph    
Visibility 7.3 miles    
Events Rain    
T = Trace of Precipitation, MM = Missing Value Source: Averaged Metar Reports

Daily Weather History Graph

Daily Weather History Graph

Search for Another Location

Airport or City:

Trip Planner

Search our weather history database for the weather conditions in past years. The results will help you decide how hot, cold, wet, or windy it might be!

Date:

Astronomy

Mar. 04, 2014 Rise Set
Actual Time 5:41 AM AEST 6:16 PM AEST
Civil Twilight 5:18 AM AEST 6:39 PM AEST
Nautical Twilight 4:50 AM AEST 7:07 PM AEST
Astronomical Twilight 4:22 AM AEST 7:35 PM AEST
Moon 8:23 AM AEST (3/4) 8:08 PM AEST (3/4)
Length of Visible Light 13h 21m
Length of Day
12h 34m
Waxing Crescent, 10% of the Moon is Illuminated
Mar 4
Waxing Crescent
Mar 8
First Quarter
Mar 17
Full
Mar 24
Last Quarter
Mar 31
New

Hourly Weather History & Observations

Time (AEST) Temp. Heat Index Dew Point Humidity Pressure Visibility Wind Dir Wind Speed Gust Speed Precip Events Conditions
12:00 AM 70 °F - 63 °F 73% 30.18 in 19 mi South 8.1 mph - -   Mostly Cloudy
12:00 AM 69.8 °F - 62.6 °F 78% 30.18 in 6.2 mi South 8.1 mph - N/A   Mostly Cloudy
12:30 AM 69.8 °F - 64.4 °F 83% 30.18 in 6.2 mi SSE 6.9 mph - N/A Rain Light Rain Showers
1:00 AM 69 °F - 64 °F 79% 30.17 in - SSE 10.4 mph - -  
1:00 AM 68.0 °F - 64.4 °F 88% 30.15 in 6.2 mi SSE 10.4 mph - N/A   Scattered Clouds
1:30 AM 71.6 °F - 62.6 °F 73% 30.15 in 6.2 mi SSE 6.9 mph - N/A   Scattered Clouds
2:00 AM 69.8 °F - 62.6 °F 78% 30.15 in 6.2 mi SSE 10.4 mph - N/A   Mostly Cloudy
2:30 AM 69.8 °F - 64.4 °F 83% 30.15 in 6.2 mi SE 5.8 mph - N/A   Partly Cloudy
3:00 AM 68 °F - 64 °F 83% 30.16 in 19 mi South 5.8 mph - -   Partly Cloudy
3:00 AM 68.0 °F - 64.4 °F 88% 30.15 in 6.2 mi South 5.8 mph - N/A   Partly Cloudy
3:30 AM 68.0 °F - 64.4 °F 88% 30.15 in 6.2 mi SSW 8.1 mph - N/A Rain Light Rain Showers
4:00 AM 68 °F - 65 °F 87% 30.17 in - South 8.1 mph - -  
4:00 AM 68.0 °F - 64.4 °F 88% 30.15 in 6.2 mi South 8.1 mph - N/A Rain Light Rain Showers
4:30 AM 68.0 °F - 66.2 °F 94% 30.15 in 6.2 mi SSW 4.6 mph - N/A   Partly Cloudy
5:00 AM 68.0 °F - 66.2 °F 94% 30.18 in 3.1 mi South 9.2 mph - N/A Rain Rain Showers
5:30 AM 68.0 °F - 66.2 °F 94% 30.18 in 6.2 mi East 11.5 mph - N/A Rain Light Rain Showers
6:00 AM 69 °F - 64 °F 79% 30.19 in 19 mi SE 8.1 mph - - Rain Light Rain Showers
6:00 AM 69.8 °F - 64.4 °F 83% 30.18 in 6.2 mi SE 8.1 mph - N/A   Mostly Cloudy
6:30 AM 69.8 °F - 66.2 °F 88% 30.18 in 6.2 mi ESE 6.9 mph - N/A   Mostly Cloudy
6:57 AM 69.8 °F - 66.2 °F 88% 30.18 in 3.7 mi ESE 5.8 mph - N/A Rain Light Rain Showers
7:00 AM 69 °F - 66 °F 86% 30.21 in - SE 6.9 mph - -  
7:00 AM 68.0 °F - 66.2 °F 94% 30.18 in 3.7 mi SE 6.9 mph - N/A Rain Light Rain Showers
7:24 AM 69.8 °F - 66.2 °F 88% 30.18 in 5.6 mi South 5.8 mph - N/A Rain Light Rain Showers
7:30 AM 69.8 °F - 66.2 °F 88% 30.18 in 6.2 mi South 6.9 mph - N/A   Mostly Cloudy
8:00 AM 71.6 °F - 66.2 °F 83% 30.18 in 6.2 mi South 5.8 mph - N/A   Scattered Clouds
8:30 AM 73.4 °F - 66.2 °F 78% 30.21 in 6.2 mi SSE 6.9 mph - N/A   Scattered Clouds
9:00 AM 75 °F - 63 °F 58% 30.21 in 16 mi SSE 6.9 mph - -   Partly Cloudy
9:00 AM 75.2 °F - 62.6 °F 65% 30.21 in 6.2 mi SSE 6.9 mph - N/A   Scattered Clouds
9:30 AM 75.2 °F - 60.8 °F 61% 30.21 in 6.2 mi East 11.5 mph - N/A   Mostly Cloudy
10:00 AM 77 °F - 60 °F 45% 30.21 in - ESE 10.4 mph - -  
10:00 AM 77.0 °F - 59.0 °F 54% 30.21 in 6.2 mi ESE 10.4 mph - N/A   Mostly Cloudy
10:30 AM 78.8 °F - 60.8 °F 54% 30.18 in 6.2 mi East 13.8 mph - N/A   Scattered Clouds
11:00 AM 80.6 °F 81.1 °F 59.0 °F 48% 30.18 in 6.2 mi East 12.7 mph - N/A   Mostly Cloudy
11:30 AM 78.8 °F - 57.2 °F 47% 30.18 in 6.2 mi East 10.4 mph 21.9 mph N/A   Mostly Cloudy
12:00 PM 81 °F - 56 °F 31% 30.19 in 19 mi ESE 11.5 mph - -   Partly Cloudy
12:00 PM 80.6 °F 80.5 °F 55.4 °F 42% 30.18 in 6.2 mi ESE 11.5 mph - N/A   Mostly Cloudy
12:30 PM 80.6 °F 80.8 °F 57.2 °F 45% 30.18 in 6.2 mi ESE 11.5 mph - N/A   Mostly Cloudy
1:00 PM 80 °F - 57 °F 35% 30.17 in - East 10.4 mph - -  
1:00 PM 80.6 °F 80.8 °F 57.2 °F 45% 30.15 in 6.2 mi East 10.4 mph - N/A   Mostly Cloudy
1:30 PM 80.6 °F 81.1 °F 59.0 °F 48% 30.15 in 6.2 mi ESE 12.7 mph - N/A   Scattered Clouds
2:00 PM 80.6 °F 81.1 °F 59.0 °F 48% 30.15 in 6.2 mi ESE 11.5 mph - N/A   Mostly Cloudy
2:30 PM 80.6 °F 81.1 °F 59.0 °F 48% 30.12 in 6.2 mi ESE 12.7 mph - N/A   Mostly Cloudy
3:00 PM 80 °F - 60 °F 40% 30.14 in 16 mi ESE 10.4 mph - -   Partly Cloudy
3:00 PM 80.6 °F 81.1 °F 59.0 °F 48% 30.12 in 6.2 mi ESE 10.4 mph - N/A   Mostly Cloudy
3:30 PM 77.0 °F - 60.8 °F 57% 30.12 in 6.2 mi ESE 11.5 mph - N/A   Scattered Clouds
4:00 PM 78 °F - 62 °F 48% 30.14 in - East 10.4 mph - -  
4:00 PM 77.0 °F - 62.6 °F 61% 30.12 in 6.2 mi East 10.4 mph - N/A   Scattered Clouds
4:30 PM 77.0 °F - 60.8 °F 57% 30.12 in 6.2 mi ESE 10.4 mph - N/A Rain Light Rain Showers
5:00 PM 73.4 °F - 64.4 °F 73% 30.12 in 6.2 mi ESE 16.1 mph - N/A   Scattered Clouds
5:30 PM 71.6 °F - 60.8 °F 69% 30.12 in 6.2 mi SE 12.7 mph - N/A Rain Light Rain Showers
6:00 PM 73 °F - 62 °F 60% 30.15 in 16 mi SSE 5.8 mph - - Rain Light Rain Showers
6:00 PM 73.4 °F - 62.6 °F 69% 30.12 in 6.2 mi SSE 5.8 mph - N/A   Mostly Cloudy
6:30 PM 73.4 °F - 60.8 °F 65% 30.12 in 6.2 mi ESE 9.2 mph - N/A   Mostly Cloudy
7:00 PM 74 °F - 62 °F 58% 30.14 in - ESE 8.1 mph - -  
7:00 PM 73.4 °F - 62.6 °F 69% 30.12 in 6.2 mi ESE 8.1 mph - N/A   Mostly Cloudy
7:30 PM 73.4 °F - 64.4 °F 73% 30.12 in 6.2 mi ESE 11.5 mph - N/A   Mostly Cloudy
8:00 PM 71.6 °F - 66.2 °F 83% 30.15 in 6.2 mi ESE 10.4 mph - N/A Rain Light Rain Showers
8:30 PM 71.6 °F - 62.6 °F 73% 30.15 in 6.2 mi ESE 5.8 mph - N/A   Mostly Cloudy
9:00 PM 73 °F - 64 °F 65% 30.16 in 12 mi SE 5.8 mph - - Rain Light Rain Showers
9:00 PM 73.4 °F - 64.4 °F 73% 30.15 in 6.2 mi SE 5.8 mph - N/A   Mostly Cloudy
9:30 PM 71.6 °F - 64.4 °F 78% 30.15 in 6.2 mi SSE 5.8 mph - N/A   Mostly Cloudy
10:00 PM 71 °F - 64 °F 73% 30.16 in - South 5.8 mph - -  
10:00 PM 71.6 °F - 64.4 °F 78% 30.15 in 6.2 mi South 5.8 mph - N/A   Mostly Cloudy
10:30 PM 69.8 °F - 64.4 °F 83% 30.12 in 6.2 mi SSE 6.9 mph - N/A Rain Light Rain Showers
10:51 PM 69.8 °F - 66.2 °F 88% 30.12 in 3.7 mi SSE 8.1 mph - N/A Rain Rain Showers
11:00 PM 69.8 °F - 66.2 °F 88% 30.12 in 3.7 mi SE 8.1 mph - N/A Rain Rain Showers
11:30 PM 68.0 °F - 66.2 °F 94% 30.12 in 3.1 mi SSE 9.2 mph - N/A Rain Rain Showers
11:47 PM 68.0 °F - 66.2 °F 94% 30.12 in 3.7 mi South 5.8 mph - N/A Rain Light Rain Showers